Flag for Bahamas Weather past 2 weeks in Nassau, Bahamas

Now
88 °F

Scattered clouds.


Feels Like: 108 °F
Forecast: 83 / 90 °F
Wind: 7 mph from Southeast

Location: Nassau Airport

Current Time: Jul 28, 2015 at 4:03:37 PM

Latest Report: Jul 28, 2015 at 2:00 PM


Visibility: N/A

Pressure: 30.04 "Hg

Humidity: 84%

Dew point: 82 °F

Location of NassauLocation

Historic Weather in Nassau — Graph

°F

Nassau temperature yesterday

Maximum temperature yesterday: 91 °F (at 2:00 PM)
Minimum temperature yesterday: 82 °F (at 7:00 AM)
Average temperature yesterday: 86 °F

Past Weeks' High & Low Weather Summary

 TemperatureHumidityPressure
High95 °F (Jul 22, 2:00 PM)94% (Jul 17, 11:00 AM)30.15 "Hg (Jul 17, 11:00 AM)
Low75 °F (Jul 14, 5:00 PM)49% (Jul 22, 3:00 PM)29.94 "Hg (Jul 26, 5:00 AM)
Average85 °F73%30.04 "Hg
* Reported Jul 13 3:00 PM — Jul 28 2:00 PM, Nassau, Weather by CustomWeather, © 2015

Note: Actual official high and low records may vary slightly from our data, if they occured in-between our weather recording intervals... More about our weather records

Advertising

Nassau weather history for previous 24 hours

 ConditionsComfort  
Time TempWeatherWind HumidityBarometerVisibility
2:00 PM
Tue, Jul 28
88 °FScattered clouds.7 mph84%30.04 "HgN/A
1:00 PM86 °FScattered clouds.8 mph70%30.05 "HgN/A
12:00 PM86 °FScattered clouds.8 mph75%30.07 "HgN/A
11:00 AM88 °FScattered clouds.7 mph79%30.07 "HgN/A
10:00 AM86 °FScattered clouds.8 mph75%30.06 "HgN/A
9:00 AM84 °FScattered clouds.3 mph84%30.04 "HgN/A
8:00 AM84 °FThunderstorms. Scattered clouds.2 mph84%30.04 "HgN/A
7:00 AM82 °FPassing clouds.2 mph79%30.03 "HgN/A
6:00 AM81 °FPassing clouds.No wind79%30.01 "HgN/A
5:00 AM82 °FPassing clouds.No wind89%29.99 "HgN/A
4:00 AM82 °FPassing clouds.No wind79%30.00 "HgN/A
2:00 AM84 °FPassing clouds.5 mph84%30.03 "HgN/A
1:00 AM84 °FPassing clouds.No wind79%30.04 "HgN/A
12:00 AM84 °FPassing clouds.No wind70%30.05 "HgN/A
11:00 PM
Mon, Jul 27
84 °FPassing clouds.5 mph84%30.05 "HgN/A
10:00 PM84 °FPassing clouds.5 mph74%30.05 "HgN/A
9:00 PM86 °FPassing clouds.6 mph70%30.04 "HgN/A
8:00 PM88 °FPassing clouds.6 mph75%30.03 "HgN/A
7:00 PM88 °FPassing clouds.8 mph66%30.02 "HgN/A
6:00 PM88 °FPassing clouds.8 mph66%30.01 "HgN/A
5:00 PM91 °FScattered clouds.5 mph71%30.01 "HgN/A
4:00 PM90 °FScattered clouds.9 mph63%30.01 "HgN/A
Weather by CustomWeather, © 2015

See weather overviewHow to use our weather pages